Temperature
17 17 17 17 17 17 17 16 16 17 17 17 17 17 17 17 17 17 17 17 17 17 17 17 17 17 17 17 17 17 17 17 17 16 16 16 16 16 16 16 16 16 16
17 17 17 17 17 16 16 16 16 16 16 16 16 17 17 17 17 17 17 17 17 17 17 17 17 17 17 17 17 17 17 17 17 16 16 16 16 16 16 16 16 16 16
17 17 17 17 16 16 16 16 16 16 16 16 16 16 16 16 16 16 16 16 17 16 16 16 16 16 17 17 17 16 16 16 16 16 16 16 16 16 16 16 16 16 16
17 17 17 16 16 16 16 16 16 16 16 16 16 16 16 16 16 16 16 16 16 16 16 16 16 16 16 16 16 16 16 16 16 16 16 16 16 16 16 16 16 16 16
17 17 16 16 16 16 16 16 16 16 16 16 16 16 16 16 16 16 16 16 16 16 16 16 16 16 16 16 16 16 16 16 16 16 16 16 16 16 16 16 16 16 16
17 16 16 16 16 16 16 16 16 16 16 16 16 16 16 16 16 16 16 16 16 16 16 16 16 16 16 16 16 16 16 16 16 16 16 16 16 16 16 16 16 16 16
16 16 16 16 16 15 15 15 15 16 16 16 16 16 16 16 16 16 16 16 16 16 16 16 16 16 16 16 16 16 16 16 16 15 15 15 15 15 15 15 16 16 16
16 16 16 16 15 15 15 15 15 15 16 16 16 16 16 16 16 16 16 16 16 15 15 16 15 15 15 15 15 15 15 15 15 15 15 15 15 15 15 15 15 15 15
16 16 16 15 15 15 15 15 15 15 15 15 16 16 16 16 16 16 16 16 16 16 16 15 15 15 15 15 15 15 15 15 15 15 15 15 15 15 15 15 15 15 15
16 16 15 15 15 15 15 15 15 15 15 15 15 16 16 16 16 16 16 16 16 16 15 15 15 15 15 15 15 15 15 15 15 15 15 15 15 15 15 15 15 15 15
16 16 15 15 15 15 15 15 15 15 15 15 15 15 16 16 16 16 15 15 15 15 15 15 15 15 15 15 15 15 15 15 15 15 15 15 15 15 15 15 15 15 15
16 16 16 15 15 15 15 15 15 15 15 15 15 15 15 15 16 16 16 15 15 15 15 15 15 15 15 15 15 15 15 15 15 15 15 15 15 15 15 15 15 15 15
16 16 16 16 15 15 15 15 15 15 15 15 15 15 15 15 15 15 15 15 15 15 15 15 15 15 15 15 15 15 14 14 14 14 14 14 14 15 15 15 14 14 14
16 16 16 16 16 15 15 15 15 15 15 15 15 15 15 15 15 15 15 15 15 15 15 15 15 15 15 15 15 15 14 14 14 14 14 14 14 14 14 14 14 14 14
17 16 16 16 16 16 16 16 15 15 15 15 15 15 15 15 15 15 15 15 15 15 15 15 15 15 15 15 14 14 14 14 14 14 14 14 14 14 14 14 14 14 14
17 17 16 16 16 16 16 16 16 16 16 16 15 15 15 15 15 15 15 15 15 14 14 15 15 15 15 14 14 14 14 14 14 14 14 14 14 14 14 14 14 14 14
17 17 17 16 16 16 16 16 16 16 16 16 16 16 16 15 15 15 15 15 15 14 14 15 15 15 14 14 14 14 14 14 14 14 14 14 14 14 13 13 13 14 14
17 17 17 17 17 16 16 16 16 16 16 16 16 16 16 16 16 15 15 15 15 15 14 15 15 15 15 14 14 14 14 14 14 14 14 14 14 14 13 13 13 13 13
17 17 17 17 17 17 16 16 16 16 16 16 16 16 16 15 16 15 15 15 15 14 14 14 15 15 15 15 14 14 14 14 14 14 14 14 14 14 14 13 13 13 13
17 17 17 16 16 16 16 16 16 16 16 16 16 16 15 15 15 15 15 15 15 14 14 14 14 15 15 15 14 14 14 15 14 14 14 14 14 14 14 14 13 13 13
17 17 16 16 16 16 16 16 16 16 16 16 15 15 15 15 15 14 14 14 14 14 14 14 14 14 15 15 15 14 14 14 14 14 14 14 14 14 14 14 14 13 13
17 16 16 16 16 16 16 16 16 15 15 15 15 15 15 14 14 14 14 14 14 13 13 13 13 13 14 14 14 14 13 13 14 14 14 14 14 14 14 14 14 13 13
16 16 16 16 15 15 15 15 15 15 14 14 14 14 14 14 14 14 13 13 13 13 13 13 13 13 13 13 13 13 13 13 13 13 13 13 13 13 14 13 13 13 13
15 15 15 15 15 14 14 14 14 14 14 14 13 13 13 13 13 13 13 13 13 13 13 12 12 12 12 12 12 12 12 12 12 13 12 12 13 13 13 13 13 13 13
14 14 14 14 14 13 13 13 13 13 13 13 13 12 12 12 12 12 12 12 12 12 12 12 12 12 12 12 12 11 11 11 11 12 12 12 12 13 13 13 13 13 13
13 13 13 13 13 13 13 13 12 12 12 12 12 12 11 11 11 11 11 11 11 11 11 11 11 11 11 11 11 11 11 11 10 11 11 11 12 12 12 13 13 13 13
Wind_Speed
3 4 3 4 4 4 4 3 2 1 2 2 3 4 5 7 8 9 10 14 15 15 15 15 15 15 15 14 14 14 13 13 13 13 13 13 12 12 12 11 11 10 10
5 4 3 3 3 3 4 3 2 2 1 2 1 2 5 7 8 9 10 11 13 14 14 15 15 15 15 15 15 14 14 14 14 14 13 13 13 13 12 12 11 11 11
6 5 3 3 2 3 4 4 3 3 2 2 2 1 3 5 6 7 8 9 10 13 14 14 15 15 15 15 15 15 15 14 15 15 14 14 14 14 13 13 12 12 12
8 6 4 2 2 4 4 3 3 3 3 2 1 1 1 3 4 5 6 7 8 9 12 14 14 14 14 14 15 15 16 16 16 15 15 15 15 15 15 14 13 13 13
9 7 3 3 5 4 3 3 3 3 2 2 1 1 1 1 1 3 4 5 6 7 9 12 14 14 13 13 13 14 16 16 16 15 15 15 15 16 16 15 15 14 14
9 7 4 4 6 4 3 3 3 2 2 1 2 2 2 1 1 1 2 2 4 6 7 8 9 11 12 12 13 13 14 15 16 15 15 15 15 16 17 17 16 16 15
8 7 4 4 4 4 3 3 3 3 2 2 3 3 4 3 2 1 1 1 1 3 5 7 7 7 7 10 11 12 12 13 14 15 15 15 15 16 17 17 17 17 17
7 6 5 4 4 4 4 4 3 3 2 2 3 3 3 4 4 2 1 1 2 2 3 5 6 6 6 5 7 10 10 11 11 12 13 14 15 16 16 17 17 18 18
8 8 7 5 4 4 4 3 4 4 2 2 2 4 3 3 2 3 2 1 1 1 1 2 5 6 6 5 5 6 7 8 8 9 10 12 13 15 15 17 18 18 19
7 8 7 6 5 4 4 3 4 3 4 2 2 2 2 3 3 0 3 3 2 1 1 1 3 5 6 6 6 6 6 6 6 6 7 8 10 13 14 15 16 17 18
5 7 7 6 5 4 4 4 4 4 3 3 2 1 2 3 2 3 1 3 3 3 2 2 3 4 6 7 7 7 6 6 5 5 5 6 7 8 10 12 14 15 16
3 5 6 6 5 4 4 4 4 4 3 3 2 2 2 2 1 2 2 2 2 3 3 2 2 4 7 9 8 8 8 7 7 6 5 5 6 6 8 9 10 12 13
4 5 5 5 4 4 5 4 4 4 3 3 3 2 2 2 2 3 3 1 1 3 3 2 3 5 7 10 10 10 9 9 8 8 7 7 7 7 8 9 9 10 11
6 7 6 6 6 7 6 4 3 3 3 3 3 3 2 1 2 3 3 3 1 2 3 4 2 4 6 10 12 12 11 12 11 11 10 10 10 10 10 10 11 11 12
6 7 8 7 7 7 6 6 4 4 4 4 3 3 2 2 1 2 2 4 4 1 3 4 3 3 5 9 12 13 13 14 14 14 14 14 14 14 14 13 13 13 13
6 7 8 8 8 7 7 6 4 4 5 5 4 4 3 3 2 1 2 2 4 5 3 3 3 3 3 6 11 14 15 15 16 17 17 17 17 17 17 17 16 16 16
7 8 9 9 9 8 8 7 7 6 7 6 5 6 6 5 4 3 2 2 3 4 4 4 3 3 3 4 5 10 14 15 15 18 19 20 21 21 21 20 20 19 18
7 8 8 9 9 9 9 9 9 8 8 8 7 7 7 6 6 5 4 4 4 4 5 6 4 3 5 5 5 6 9 13 15 18 20 21 22 23 23 23 22 22 21
7 7 8 9 9 9 9 10 9 9 9 9 9 9 8 7 7 6 6 6 5 5 5 5 6 4 5 5 5 6 6 7 12 16 18 21 22 23 24 24 24 24 24
8 8 8 9 9 9 9 9 9 9 9 9 9 9 9 9 9 9 8 8 7 6 6 6 7 6 6 5 4 6 6 6 7 10 14 16 18 21 23 24 24 25 25
6 6 6 7 7 7 8 9 9 10 9 9 9 9 10 11 13 11 9 8 8 8 7 7 8 6 7 5 6 5 7 7 6 6 6 8 9 10 14 19 22 24 26
3 3 4 5 5 6 8 11 9 8 8 8 8 8 9 10 12 14 15 14 12 10 10 9 9 9 11 8 7 7 7 6 7 4 5 8 6 8 9 14 19 23 25
0 1 2 2 3 3 4 5 8 5 5 5 6 6 7 6 7 7 9 12 13 15 15 12 12 13 12 9 8 8 8 9 10 6 4 7 6 8 9 16 21 24 26
1 1 1 0 0 1 0 2 2 2 1 2 3 3 4 4 4 4 5 6 7 8 11 11 11 13 12 10 10 12 12 11 9 7 6 8 8 8 9 12 21 24 26
3 3 2 2 2 3 4 2 2 1 1 2 3 3 2 2 5 6 4 5 7 8 10 12 12 14 17 17 13 8 8 8 11 9 7 7 8 9 9 10 15 23 26
4 5 5 5 5 5 7 6 5 3 3 3 3 4 4 5 7 7 4 5 8 9 9 11 10 11 11 13 15 12 11 11 11 8 7 7 9 7 7 8 9 12 16
Wind_Direction
128 131 133 136 140 140 142 144 163 168 134 116 118 130 136 147 163 174 185 189 191 190 188 187 185 186 186 186 186 184 182 180 178 177 175 173 170 169 168 167 165 164 161
131 129 123 121 119 128 133 138 137 121 119 111 100 126 140 152 165 179 189 199 201 199 197 195 194 192 191 193 193 192 191 188 186 186 184 183 180 178 177 176 175 175 173
125 127 122 116 116 120 112 100 91 79 76 73 72 93 131 149 165 180 191 203 206 205 204 202 201 199 197 198 199 198 198 195 192 192 192 192 191 188 186 186 185 184 183
122 118 115 116 112 104 101 96 84 76 65 71 69 50 107 148 161 182 193 204 206 210 212 209 207 206 206 206 205 203 202 201 200 198 198 199 199 198 196 195 194 193 193
120 116 111 111 107 94 83 98 83 96 87 62 68 79 66 130 153 172 179 193 202 208 210 213 213 213 214 215 213 210 207 206 205 204 203 204 205 206 204 203 202 202 202
113 111 104 94 99 95 82 82 83 73 95 88 64 51 12 354 81 117 168 173 188 198 202 205 212 218 221 220 219 216 213 211 209 210 209 209 212 212 211 210 208 208 209
116 110 103 93 99 104 108 104 93 71 43 63 68 27 1 359 20 45 116 122 149 175 180 193 200 209 220 224 223 221 221 220 218 216 215 217 219 218 217 217 215 215 215
123 119 113 108 106 102 89 81 85 84 34 60 112 92 30 355 346 351 6 125 122 130 156 181 184 192 199 206 222 225 229 229 226 224 224 225 226 224 222 222 221 221 221
127 124 124 117 110 115 112 98 93 100 78 24 84 138 142 202 294 331 331 339 136 132 165 167 178 186 194 197 206 217 224 231 232 235 233 232 231 228 228 228 228 228 228
141 136 129 122 116 117 121 118 105 106 110 66 18 37 146 153 148 294 329 328 314 236 217 193 176 186 190 189 196 199 207 219 228 237 241 240 239 236 235 235 235 235 234
158 153 142 131 128 126 130 117 109 102 110 117 95 64 59 59 88 135 232 312 329 302 265 226 193 193 190 187 189 193 194 205 219 229 236 241 241 242 241 240 240 240 239
171 169 158 151 149 142 145 141 131 124 123 119 113 108 120 119 132 138 169 243 278 289 288 267 220 201 196 194 196 195 196 204 213 224 235 240 244 247 245 246 247 247 247
188 193 170 163 160 167 167 158 147 149 148 142 146 142 141 157 167 149 140 172 278 300 313 289 245 219 205 199 202 201 205 208 214 225 234 242 248 252 250 249 251 253 253
196 190 181 179 179 178 176 166 163 174 168 166 172 166 160 179 161 159 157 144 76 331 323 291 295 238 219 205 207 205 211 217 223 231 240 246 251 254 255 255 253 253 255
197 189 185 184 185 182 178 170 182 198 188 194 201 200 197 221 196 177 166 156 152 189 283 287 293 277 236 226 221 212 218 225 230 236 242 248 252 255 256 256 255 254 253
194 185 188 189 189 187 182 179 188 200 193 205 206 208 219 225 227 195 179 176 164 169 223 265 262 268 248 240 236 226 230 236 238 241 245 249 252 255 257 256 255 254 253
192 190 191 191 193 196 192 190 200 199 204 216 216 211 224 221 222 223 204 190 184 171 214 264 261 267 253 255 253 239 242 242 246 248 249 252 254 255 256 256 255 254 253
198 196 193 194 200 202 199 200 209 209 208 217 222 219 227 226 226 226 220 224 220 203 206 250 268 265 254 250 248 248 249 248 246 251 252 254 255 255 255 254 252 252 251
202 198 196 201 206 205 204 209 212 215 214 218 219 220 226 222 229 228 225 229 232 231 214 233 261 255 259 258 262 266 259 255 256 256 255 256 256 255 255 253 251 250 250
203 203 204 207 208 207 208 211 213 218 222 224 223 223 224 220 225 226 229 228 229 234 232 240 258 261 259 256 245 259 273 261 259 260 258 257 256 256 255 253 251 251 251
215 211 210 216 213 212 218 215 216 220 223 231 233 231 231 228 226 225 229 225 224 232 235 241 254 263 262 257 250 244 258 267 265 248 256 258 253 253 255 254 253 252 252
222 213 215 216 216 228 233 221 216 223 222 227 237 243 246 244 242 238 238 233 223 229 237 240 247 249 257 249 249 247 251 259 270 246 226 256 237 247 248 248 250 250 250
190 210 221 207 215 236 236 225 220 222 228 234 240 248 260 263 255 253 254 253 247 242 238 240 247 251 254 248 241 247 244 243 252 244 215 258 248 250 249 251 249 249 250
79 91 62 87 123 3 181 198 191 185 225 261 266 266 266 287 313 303 286 281 274 267 259 253 252 257 257 254 243 248 253 256 255 248 218 251 254 251 253 249 251 249 250
35 34 37 52 60 27 35 60 124 91 35 351 357 9 13 3 356 1 340 312 302 295 291 284 274 269 267 264 259 260 257 256 263 258 224 235 254 257 255 253 252 250 248
44 47 51 53 63 54 49 60 80 71 47 18 5 5 22 17 359 357 336 308 297 294 300 304 295 288 277 270 262 248 249 255 262 263 232 228 249 247 262 252 248 248 249
Height
1553 1554 1555 1556 1557 1559 1560 1561 1562 1563 1565 1566 1566 1567 1568 1569 1569 1570 1571 1571 1572 1573 1574 1575 1576 1577 1579 1580 1581 1582 1583 1584 1585 1586 1587 1587 1588 1589 1590 1591 1591 1592 1593
1553 1553 1554 1555 1557 1558 1559 1560 1562 1563 1564 1565 1566 1567 1567 1568 1569 1570 1570 1571 1571 1572 1573 1574 1575 1577 1578 1579 1580 1581 1582 1583 1585 1585 1586 1587 1588 1589 1590 1590 1591 1592 1593
1552 1553 1554 1555 1556 1557 1558 1560 1561 1562 1563 1565 1565 1566 1567 1568 1568 1569 1569 1570 1571 1571 1572 1573 1574 1575 1576 1578 1579 1580 1581 1583 1584 1585 1586 1587 1587 1588 1589 1590 1591 1592 1593
1551 1552 1553 1554 1555 1556 1557 1559 1560 1562 1563 1564 1565 1566 1567 1567 1568 1568 1569 1569 1570 1571 1571 1572 1573 1574 1575 1576 1577 1579 1580 1581 1583 1584 1585 1585 1587 1588 1588 1589 1590 1591 1592
1551 1552 1552 1553 1554 1555 1557 1558 1560 1561 1563 1564 1565 1566 1566 1567 1567 1568 1568 1569 1569 1570 1570 1571 1572 1573 1573 1574 1576 1577 1578 1579 1581 1582 1583 1584 1585 1586 1587 1588 1589 1590 1591
1550 1551 1552 1553 1554 1555 1556 1558 1559 1561 1562 1564 1565 1566 1566 1567 1567 1567 1568 1568 1569 1569 1569 1570 1571 1571 1572 1572 1573 1575 1576 1577 1578 1579 1581 1582 1583 1584 1585 1586 1588 1589 1590
1550 1551 1552 1553 1554 1555 1556 1558 1559 1560 1562 1563 1564 1565 1566 1566 1567 1567 1568 1568 1568 1568 1569 1569 1569 1570 1571 1571 1572 1573 1573 1574 1576 1577 1578 1579 1580 1581 1583 1584 1585 1587 1588
1549 1550 1551 1552 1553 1554 1556 1557 1558 1560 1561 1562 1564 1565 1565 1567 1567 1567 1567 1567 1567 1568 1568 1568 1568 1569 1569 1570 1570 1571 1571 1572 1573 1574 1575 1576 1577 1578 1580 1581 1583 1584 1585
1549 1550 1551 1552 1553 1554 1555 1556 1558 1559 1560 1562 1563 1564 1565 1565 1566 1567 1567 1567 1567 1567 1567 1568 1568 1568 1568 1568 1569 1569 1570 1570 1570 1571 1572 1573 1574 1575 1577 1578 1579 1581 1582
1549 1550 1551 1551 1552 1553 1554 1556 1557 1559 1560 1561 1562 1563 1564 1564 1565 1566 1567 1567 1567 1567 1567 1567 1567 1567 1567 1567 1567 1568 1568 1568 1568 1569 1569 1570 1571 1572 1573 1574 1576 1577 1578
1548 1549 1550 1551 1552 1553 1554 1555 1557 1558 1559 1560 1561 1562 1563 1563 1564 1564 1565 1566 1566 1566 1566 1566 1566 1566 1566 1566 1566 1566 1566 1566 1567 1567 1567 1567 1568 1568 1569 1570 1572 1573 1574
1548 1549 1550 1551 1551 1552 1553 1554 1556 1557 1558 1559 1560 1561 1562 1562 1563 1563 1564 1564 1565 1565 1565 1565 1565 1565 1565 1564 1564 1564 1564 1564 1564 1564 1564 1564 1564 1565 1566 1566 1567 1568 1569
1547 1548 1549 1550 1551 1552 1553 1554 1555 1556 1557 1558 1559 1560 1561 1562 1562 1562 1563 1563 1563 1563 1563 1564 1563 1563 1563 1563 1563 1563 1562 1562 1562 1562 1561 1561 1561 1561 1562 1562 1563 1564 1565
1546 1548 1549 1550 1550 1551 1552 1553 1554 1555 1556 1557 1558 1559 1560 1560 1561 1561 1561 1562 1561 1562 1561 1561 1561 1561 1561 1561 1561 1561 1560 1560 1559 1559 1558 1558 1557 1557 1558 1558 1559 1559 1560
1545 1546 1548 1549 1550 1550 1551 1552 1552 1553 1554 1555 1556 1557 1558 1558 1559 1559 1559 1560 1561 1560 1559 1559 1559 1559 1559 1559 1559 1559 1558 1557 1557 1556 1555 1554 1554 1553 1553 1554 1554 1555 1555
1544 1545 1546 1547 1548 1549 1550 1550 1551 1552 1552 1553 1554 1555 1555 1556 1557 1557 1557 1557 1557 1558 1557 1557 1557 1557 1557 1557 1556 1556 1555 1554 1553 1552 1551 1551 1550 1549 1549 1549 1549 1549 1550
1542 1543 1544 1545 1546 1547 1547 1548 1549 1550 1550 1551 1551 1552 1553 1554 1554 1555 1555 1555 1555 1555 1554 1554 1554 1554 1553 1553 1553 1552 1552 1551 1550 1549 1548 1547 1546 1546 1545 1545 1545 1544 1544
1540 1541 1542 1543 1544 1544 1545 1545 1546 1547 1547 1548 1549 1549 1550 1551 1551 1551 1552 1552 1552 1552 1551 1550 1550 1550 1550 1549 1549 1548 1547 1547 1546 1545 1544 1543 1542 1541 1541 1540 1540 1540 1539
1537 1538 1539 1540 1540 1541 1541 1542 1543 1544 1544 1545 1545 1546 1546 1547 1547 1548 1548 1548 1548 1548 1547 1546 1545 1545 1545 1545 1544 1543 1542 1542 1541 1540 1539 1538 1538 1537 1536 1536 1535 1535 1534
1533 1534 1535 1536 1536 1537 1537 1538 1539 1539 1540 1541 1541 1542 1542 1543 1543 1543 1543 1543 1544 1543 1543 1541 1540 1539 1539 1539 1539 1537 1536 1536 1535 1535 1534 1533 1532 1532 1531 1531 1530 1530 1529
1529 1530 1531 1531 1531 1532 1533 1533 1534 1535 1535 1536 1536 1537 1537 1538 1538 1538 1538 1538 1538 1537 1537 1536 1534 1533 1532 1533 1532 1532 1530 1529 1528 1529 1527 1527 1526 1525 1525 1524 1524 1524 1523
1525 1525 1525 1526 1526 1527 1527 1528 1529 1529 1530 1531 1531 1532 1532 1532 1532 1532 1532 1532 1532 1531 1530 1529 1528 1527 1525 1526 1526 1525 1524 1522 1520 1522 1521 1519 1519 1517 1517 1517 1517 1517 1516
1520 1520 1520 1521 1522 1522 1523 1523 1524 1524 1524 1525 1525 1525 1526 1526 1525 1525 1525 1525 1524 1524 1524 1523 1520 1519 1519 1519 1519 1517 1516 1514 1512 1513 1513 1509 1510 1508 1509 1509 1509 1509 1508
1516 1515 1516 1517 1517 1518 1518 1519 1519 1519 1519 1519 1519 1519 1519 1518 1518 1517 1517 1516 1516 1515 1515 1514 1513 1511 1511 1510 1510 1509 1507 1505 1503 1503 1504 1500 1499 1499 1499 1499 1500 1499 1499
1512 1512 1513 1513 1513 1513 1514 1514 1514 1514 1513 1514 1513 1513 1513 1512 1511 1510 1509 1507 1506 1506 1506 1505 1503 1502 1501 1501 1501 1499 1497 1495 1491 1491 1493 1491 1489 1489 1488 1488 1489 1489 1490
1510 1510 1511 1510 1510 1510 1510 1511 1510 1510 1509 1508 1508 1508 1507 1506 1505 1504 1502 1500 1498 1497 1496 1494 1493 1492 1491 1491 1490 1489 1487 1485 1481 1479 1481 1481 1479 1479 1476 1476 1478 1478 1479